Time,TemperatureF,DewpointF,PressureIn,WindDirection,WindDirectionDegrees,WindSpeedMPH,WindSpeedGustMPH,Humidity,HourlyPrecipIn,Conditions,Clouds,dailyrainin,SoftwareType,DateUTC
2013-01-27 00:00:00,40.1,34.4,30.49,ENE,66,0.0,0.0,80,0.00,,CLR,0.00,VWS V14.01,2013-01-27 05:00:00,
2013-01-27 00:01:00,39.9,34.2,30.49,ENE,66,0.0,0.0,80,0.00,,FEW250,0.00,VWS V14.01,2013-01-27 05:01:00,
2013-01-27 00:03:00,39.9,34.2,30.49,ENE,66,0.0,0.0,80,0.00,,FEW250,0.00,VWS V14.01,2013-01-27 05:03:00,
2013-01-27 00:08:00,39.6,34.3,30.49,ENE,66,0.0,0.0,81,0.00,,FEW250,0.00,VWS V14.01,2013-01-27 05:08:00,
2013-01-27 00:13:00,39.6,34.3,30.49,ENE,66,0.0,0.0,81,0.00,,FEW250,0.00,VWS V14.01,2013-01-27 05:13:00,
2013-01-27 00:18:00,39.5,34.2,30.50,ENE,66,0.0,0.0,81,0.00,,FEW250,0.00,VWS V14.01,2013-01-27 05:18:00,
2013-01-27 00:23:00,39.5,34.2,30.50,ENE,66,0.0,0.0,81,0.00,,FEW250,0.00,VWS V14.01,2013-01-27 05:23:00,
2013-01-27 00:28:00,39.5,34.2,30.50,ENE,66,0.0,0.0,81,0.00,,FEW250,0.00,VWS V14.01,2013-01-27 05:28:00,
2013-01-27 00:34:00,39.6,34.3,30.50,ENE,66,0.0,0.0,81,0.00,,FEW250,0.00,VWS V14.01,2013-01-27 05:34:00,
2013-01-27 00:39:00,39.6,34.3,30.50,ENE,66,0.0,0.0,81,0.00,,FEW250,0.00,VWS V14.01,2013-01-27 05:39:00,
2013-01-27 00:44:00,39.5,34.2,30.50,ENE,66,0.0,0.0,81,0.00,,FEW250,0.00,VWS V14.01,2013-01-27 05:44:00,
2013-01-27 00:49:00,39.3,34.0,30.50,ENE,66,0.0,0.0,81,0.00,,FEW250,0.00,VWS V14.01,2013-01-27 05:49:00,
2013-01-27 00:54:00,39.2,34.2,30.50,ENE,66,0.0,0.0,82,0.00,,FEW250,0.00,VWS V14.01,2013-01-27 05:54:00,
2013-01-27 00:59:00,39.1,34.4,30.50,ENE,66,0.0,0.0,83,0.00,,FEW250,0.00,VWS V14.01,2013-01-27 05:59:00,
2013-01-27 01:04:00,39.1,34.4,30.50,ENE,66,0.0,0.0,83,0.00,,CLR,0.00,VWS V14.01,2013-01-27 06:04:00,
2013-01-27 01:09:00,38.9,34.2,30.50,ENE,66,0.0,0.0,83,0.00,,CLR,0.00,VWS V14.01,2013-01-27 06:09:00,
2013-01-27 01:14:00,38.9,34.5,30.50,ENE,60,0.0,0.0,84,0.00,,CLR,0.00,VWS V14.01,2013-01-27 06:14:00,
2013-01-27 01:19:00,38.9,34.5,30.51,ENE,59,0.0,0.0,84,0.00,,CLR,0.00,VWS V14.01,2013-01-27 06:19:00,
2013-01-27 01:24:00,38.8,34.4,30.51,ENE,59,0.0,0.0,84,0.00,,CLR,0.00,VWS V14.01,2013-01-27 06:24:00,
2013-01-27 01:29:00,38.8,34.4,30.51,West,281,0.0,0.0,84,0.00,,CLR,0.00,VWS V14.01,2013-01-27 06:29:00,
2013-01-27 01:34:00,38.8,34.4,30.51,West,281,0.0,0.0,84,0.00,,CLR,0.00,VWS V14.01,2013-01-27 06:34:00,
2013-01-27 01:39:00,38.8,34.4,30.51,West,281,0.0,0.0,84,0.00,,CLR,0.00,VWS V14.01,2013-01-27 06:39:00,
2013-01-27 01:44:00,38.8,34.4,30.51,West,281,0.0,0.0,84,0.00,,CLR,0.00,VWS V14.01,2013-01-27 06:44:00,
2013-01-27 01:49:00,38.8,34.4,30.51,North,358,0.0,0.0,84,0.00,,CLR,0.00,VWS V14.01,2013-01-27 06:49:00,
2013-01-27 01:54:00,38.8,34.4,30.51,North,358,0.0,0.0,84,0.00,,CLR,0.00,VWS V14.01,2013-01-27 06:54:00,
2013-01-27 01:59:00,38.6,34.2,30.51,North,358,0.0,1.0,84,0.00,,CLR,0.00,VWS V14.01,2013-01-27 06:59:00,
2013-01-27 02:04:00,38.5,34.4,30.52,North,358,0.0,0.0,85,0.00,,CLR,0.00,VWS V14.01,2013-01-27 07:04:00,
2013-01-27 02:09:00,38.5,34.4,30.52,North,358,0.0,0.0,85,0.00,,CLR,0.00,VWS V14.01,2013-01-27 07:09:00,
2013-01-27 02:14:00,38.5,34.4,30.52,North,358,0.0,0.0,85,0.00,,CLR,0.00,VWS V14.01,2013-01-27 07:14:00,
2013-01-27 02:19:00,38.5,34.4,30.52,North,358,0.0,0.0,85,0.00,,CLR,0.00,VWS V14.01,2013-01-27 07:19:00,
2013-01-27 02:24:00,38.5,34.4,30.52,North,358,0.0,0.0,85,0.00,,CLR,0.00,VWS V14.01,2013-01-27 07:24:00,
2013-01-27 02:29:00,38.3,34.2,30.52,NNW,346,0.0,1.0,85,0.00,,CLR,0.00,VWS V14.01,2013-01-27 07:29:00,
2013-01-27 02:34:00,38.3,34.2,30.52,NNW,346,0.0,0.0,85,0.00,,CLR,0.00,VWS V14.01,2013-01-27 07:34:00,
2013-01-27 02:39:00,38.3,34.2,30.52,NNW,347,0.0,0.0,85,0.00,,CLR,0.00,VWS V14.01,2013-01-27 07:39:00,
2013-01-27 02:44:00,38.2,34.1,30.52,NNW,347,0.0,0.0,85,0.00,,CLR,0.00,VWS V14.01,2013-01-27 07:44:00,
2013-01-27 02:49:00,38.2,34.1,30.53,NNW,347,0.0,0.0,85,0.00,,CLR,0.00,VWS V14.01,2013-01-27 07:49:00,
2013-01-27 02:54:00,38.2,34.1,30.53,NNW,347,0.0,0.0,85,0.00,,CLR,0.00,VWS V14.01,2013-01-27 07:54:00,
2013-01-27 02:59:00,38.0,33.9,30.53,East,90,0.0,0.0,85,0.00,,CLR,0.00,VWS V14.01,2013-01-27 07:59:00,
2013-01-27 03:04:00,38.0,33.9,30.53,ENE,57,0.0,2.0,85,0.00,,CLR,0.00,VWS V14.01,2013-01-27 08:04:00,
2013-01-27 03:09:00,38.0,33.9,30.53,WNW,297,0.0,1.0,85,0.00,,CLR,0.00,VWS V14.01,2013-01-27 08:09:00,
2013-01-27 03:14:00,38.2,33.8,30.53,NW,311,0.0,1.0,84,0.00,,CLR,0.00,VWS V14.01,2013-01-27 08:14:00,
2013-01-27 03:19:00,38.0,33.6,30.54,NW,319,0.0,2.0,84,0.00,,CLR,0.00,VWS V14.01,2013-01-27 08:19:00,
2013-01-27 03:24:00,38.0,33.6,30.54,WNW,293,0.0,1.0,84,0.00,,CLR,0.00,VWS V14.01,2013-01-27 08:24:00,
2013-01-27 03:29:00,38.0,33.6,30.54,NNW,336,0.0,0.0,84,0.00,,CLR,0.00,VWS V14.01,2013-01-27 08:29:00,
2013-01-27 03:34:00,38.0,33.6,30.53,North,352,0.0,0.0,84,0.00,,CLR,0.00,VWS V14.01,2013-01-27 08:34:00,
2013-01-27 03:39:00,37.9,33.5,30.53,NNW,340,0.0,3.0,84,0.00,,CLR,0.00,VWS V14.01,2013-01-27 08:39:00,
2013-01-27 03:44:00,37.9,33.5,30.53,WNW,292,0.0,0.0,84,0.00,,CLR,0.00,VWS V14.01,2013-01-27 08:44:00,
2013-01-27 03:49:00,37.8,33.1,30.54,NNE,30,1.0,1.0,83,0.00,,CLR,0.00,VWS V14.01,2013-01-27 08:49:00,
2013-01-27 03:54:00,37.6,32.9,30.54,NE,38,0.0,3.0,83,0.00,,CLR,0.00,VWS V14.01,2013-01-27 08:54:00,
2013-01-27 03:59:00,37.5,32.8,30.54,NW,315,3.0,3.0,83,0.00,,CLR,0.00,VWS V14.01,2013-01-27 08:59:00,
2013-01-27 04:05:00,37.5,32.5,30.54,West,266,0.0,0.0,82,0.00,,CLR,0.00,VWS V14.01,2013-01-27 09:05:00,
2013-01-27 04:11:00,37.3,32.3,30.54,NNW,329,0.0,0.0,82,0.00,,CLR,0.00,VWS V14.01,2013-01-27 09:11:00,
2013-01-27 04:16:00,37.2,31.9,30.55,NW,326,0.0,0.0,81,0.00,,CLR,0.00,VWS V14.01,2013-01-27 09:16:00,
2013-01-27 04:22:00,37.0,31.7,30.55,WNW,285,0.0,0.0,81,0.00,,CLR,0.00,VWS V14.01,2013-01-27 09:22:00,
2013-01-27 04:27:00,36.9,31.6,30.55,NNW,346,0.0,3.0,81,0.00,,CLR,0.00,VWS V14.01,2013-01-27 09:27:00,
2013-01-27 04:32:00,36.9,31.3,30.55,North,0,0.0,0.0,80,0.00,,CLR,0.00,VWS V14.01,2013-01-27 09:32:00,
2013-01-27 04:37:00,36.9,31.0,30.55,NW,322,0.0,0.0,79,0.00,,CLR,0.00,VWS V14.01,2013-01-27 09:37:00,
2013-01-27 04:42:00,36.8,30.9,30.55,North,0,1.0,2.0,79,0.00,,CLR,0.00,VWS V14.01,2013-01-27 09:42:00,
2013-01-27 04:47:00,36.6,30.4,30.55,NW,326,0.0,0.0,78,0.00,,CLR,0.00,VWS V14.01,2013-01-27 09:47:00,
2013-01-27 04:52:00,36.6,30.4,30.55,NW,314,0.0,0.0,78,0.00,,CLR,0.00,VWS V14.01,2013-01-27 09:52:00,
2013-01-27 04:57:00,36.6,30.4,30.55,NW,307,0.0,0.0,78,0.00,,CLR,0.00,VWS V14.01,2013-01-27 09:57:00,
2013-01-27 05:02:00,36.5,30.0,30.56,NE,53,0.0,0.0,77,0.00,,CLR,0.00,VWS V14.01,2013-01-27 10:02:00,
2013-01-27 05:07:00,36.5,30.0,30.56,North,11,0.0,1.0,77,0.00,,CLR,0.00,VWS V14.01,2013-01-27 10:07:00,
2013-01-27 05:12:00,36.5,30.0,30.56,NNW,335,0.0,0.0,77,0.00,,CLR,0.00,VWS V14.01,2013-01-27 10:12:00,
2013-01-27 05:17:00,36.5,30.0,30.56,WSW,252,0.0,0.0,77,0.00,,CLR,0.00,VWS V14.01,2013-01-27 10:17:00,
2013-01-27 05:22:00,36.3,29.8,30.56,WSW,252,0.0,0.0,77,0.00,,CLR,0.00,VWS V14.01,2013-01-27 10:22:00,
2013-01-27 05:27:00,36.2,29.7,30.56,WSW,252,0.0,0.0,77,0.00,,CLR,0.00,VWS V14.01,2013-01-27 10:27:00,
2013-01-27 05:32:00,36.0,29.5,30.57,WSW,252,0.0,0.0,77,0.00,,CLR,0.00,VWS V14.01,2013-01-27 10:32:00,
2013-01-27 05:38:00,35.9,29.4,30.57,WSW,252,0.0,0.0,77,0.00,,CLR,0.00,VWS V14.01,2013-01-27 10:38:00,
2013-01-27 05:43:00,35.8,29.6,30.57,WSW,252,0.0,0.0,78,0.00,,CLR,0.00,VWS V14.01,2013-01-27 10:43:00,
2013-01-27 05:48:00,35.5,29.3,30.58,WSW,252,0.0,0.0,78,0.00,,CLR,0.00,VWS V14.01,2013-01-27 10:48:00,
2013-01-27 05:53:00,35.5,29.3,30.58,WSW,252,0.0,1.0,78,0.00,,CLR,0.00,VWS V14.01,2013-01-27 10:53:00,
2013-01-27 05:58:00,35.3,29.1,30.58,WSW,252,0.0,0.0,78,0.00,,CLR,0.00,VWS V14.01,2013-01-27 10:58:00,
2013-01-27 06:03:00,35.2,29.0,30.58,WSW,252,0.0,0.0,78,0.00,,CLR,0.00,VWS V14.01,2013-01-27 11:03:00,
2013-01-27 06:08:00,35.2,29.0,30.58,WSW,252,0.0,2.0,78,0.00,,CLR,0.00,VWS V14.01,2013-01-27 11:08:00,
2013-01-27 06:13:00,35.0,28.9,30.58,WSW,252,0.0,0.0,78,0.00,,CLR,0.00,VWS V14.01,2013-01-27 11:13:00,
2013-01-27 06:18:00,34.9,28.8,30.58,WSW,252,0.0,0.0,78,0.00,,CLR,0.00,VWS V14.01,2013-01-27 11:18:00,
2013-01-27 06:23:00,34.9,28.8,30.58,WSW,252,0.0,0.0,78,0.00,,CLR,0.00,VWS V14.01,2013-01-27 11:23:00,
2013-01-27 06:28:00,34.7,28.5,30.58,WSW,252,0.0,0.0,78,0.00,,CLR,0.00,VWS V14.01,2013-01-27 11:28:00,
2013-01-27 06:33:00,34.6,28.5,30.58,WSW,252,0.0,0.0,78,0.00,,CLR,0.00,VWS V14.01,2013-01-27 11:33:00,
2013-01-27 06:38:00,34.4,28.3,30.58,NNE,15,0.0,0.0,78,0.00,,CLR,0.00,VWS V14.01,2013-01-27 11:38:00,
2013-01-27 06:43:00,34.3,28.2,30.58,NNE,15,0.0,0.0,78,0.00,,CLR,0.00,VWS V14.01,2013-01-27 11:43:00,
2013-01-27 06:48:00,34.1,28.0,30.59,NNE,15,0.0,0.0,78,0.00,,CLR,0.00,VWS V14.01,2013-01-27 11:48:00,
2013-01-27 06:53:00,34.0,27.9,30.59,North,0,0.0,0.0,78,0.00,,CLR,0.00,VWS V14.01,2013-01-27 11:53:00,
2013-01-27 06:58:00,33.8,27.7,30.59,North,0,0.0,0.0,78,0.00,,CLR,0.00,VWS V14.01,2013-01-27 11:58:00,
2013-01-27 07:03:00,33.7,27.6,30.60,North,0,0.0,0.0,78,0.00,,CLR,0.00,VWS V14.01,2013-01-27 12:03:00,
2013-01-27 07:08:00,33.5,27.4,30.60,North,0,0.0,0.0,78,0.00,,CLR,0.00,VWS V14.01,2013-01-27 12:08:00,
2013-01-27 07:13:00,33.5,27.4,30.60,North,358,0.0,0.0,78,0.00,,CLR,0.00,VWS V14.01,2013-01-27 12:13:00,
2013-01-27 07:18:00,33.4,27.3,30.60,North,352,0.0,0.0,78,0.00,,CLR,0.00,VWS V14.01,2013-01-27 12:18:00,
2013-01-27 07:23:00,33.4,27.3,30.60,North,352,0.0,0.0,78,0.00,,CLR,0.00,VWS V14.01,2013-01-27 12:23:00,
2013-01-27 07:28:00,33.4,27.6,30.60,North,352,0.0,0.0,79,0.00,,CLR,0.00,VWS V14.01,2013-01-27 12:28:00,
2013-01-27 07:34:00,33.2,27.4,30.61,North,352,0.0,0.0,79,0.00,,CLR,0.00,VWS V14.01,2013-01-27 12:34:00,
2013-01-27 07:39:00,33.4,27.6,30.61,North,356,0.0,0.0,79,0.00,,CLR,0.00,VWS V14.01,2013-01-27 12:39:00,
2013-01-27 07:44:00,33.4,27.6,30.61,NNW,348,0.0,0.0,79,0.00,,CLR,0.00,VWS V14.01,2013-01-27 12:44:00,
2013-01-27 07:49:00,33.5,28.0,30.62,NNW,348,0.0,0.0,80,0.00,,CLR,0.00,VWS V14.01,2013-01-27 12:49:00,
2013-01-27 07:54:00,33.8,28.0,30.62,North,0,0.0,0.0,79,0.00,,CLR,0.00,VWS V14.01,2013-01-27 12:54:00,
2013-01-27 07:59:00,34.1,28.3,30.62,ENE,78,0.0,0.0,79,0.00,,CLR,0.00,VWS V14.01,2013-01-27 12:59:00,
2013-01-27 08:04:00,34.4,28.6,30.62,North,354,0.0,0.0,79,0.00,,FEW250,0.00,VWS V14.01,2013-01-27 13:04:00,
2013-01-27 08:09:00,34.7,28.5,30.62,NNW,328,0.0,2.0,78,0.00,,FEW250,0.00,VWS V14.01,2013-01-27 13:09:00,
2013-01-27 08:14:00,35.2,29.0,30.62,WNW,295,0.0,0.0,78,0.00,,FEW250,0.00,VWS V14.01,2013-01-27 13:14:00,
2013-01-27 08:19:00,35.6,29.1,30.63,NNE,20,0.0,0.0,77,0.00,,FEW250,0.00,VWS V14.01,2013-01-27 13:19:00,
2013-01-27 08:24:00,36.0,29.2,30.63,NNW,340,0.0,0.0,76,0.00,,FEW250,0.00,VWS V14.01,2013-01-27 13:24:00,
2013-01-27 08:29:00,36.5,29.7,30.63,North,0,2.0,4.0,76,0.00,,FEW250,0.00,VWS V14.01,2013-01-27 13:29:00,
2013-01-27 08:34:00,36.8,29.6,30.63,North,352,0.0,0.0,75,0.00,,FEW250,0.00,VWS V14.01,2013-01-27 13:34:00,
2013-01-27 08:39:00,37.2,30.0,30.63,NW,316,4.0,4.0,75,0.00,,FEW250,0.00,VWS V14.01,2013-01-27 13:39:00,
2013-01-27 08:44:00,37.6,30.1,30.63,North,355,0.0,2.0,74,0.00,,FEW250,0.00,VWS V14.01,2013-01-27 13:44:00,
2013-01-27 08:50:00,38.2,31.0,30.64,WNW,288,0.0,0.0,75,0.00,,FEW250,0.00,VWS V14.01,2013-01-27 13:50:00,
2013-01-27 08:55:00,38.6,31.4,30.64,NW,326,0.0,0.0,75,0.00,,FEW250,0.00,VWS V14.01,2013-01-27 13:55:00,
2013-01-27 09:00:00,39.2,31.3,30.64,WNW,297,1.0,1.0,73,0.00,,FEW250,0.00,VWS V14.01,2013-01-27 14:00:00,
2013-01-27 09:05:00,39.6,31.7,30.66,WSW,255,0.0,2.0,73,0.00,,FEW250,0.00,VWS V14.01,2013-01-27 14:05:00,
2013-01-27 09:10:00,40.1,32.5,30.66,North,8,0.0,0.0,74,0.00,,FEW250,0.00,VWS V14.01,2013-01-27 14:10:00,
2013-01-27 09:15:00,40.5,32.2,30.66,NW,309,1.0,1.0,72,0.00,,FEW250,0.00,VWS V14.01,2013-01-27 14:15:00,
2013-01-27 09:20:00,41.2,33.2,30.66,NNW,342,0.0,0.0,73,0.00,,FEW250,0.00,VWS V14.01,2013-01-27 14:20:00,
2013-01-27 09:25:00,41.6,33.3,30.66,WNW,294,1.0,2.0,72,0.00,,FEW250,0.00,VWS V14.01,2013-01-27 14:25:00,
2013-01-27 09:30:00,42.2,33.8,30.66,NW,321,1.0,1.0,72,0.00,,FEW250,0.00,VWS V14.01,2013-01-27 14:30:00,
2013-01-27 09:35:00,42.5,33.8,30.66,NW,321,1.0,4.0,71,0.00,,FEW250,0.00,VWS V14.01,2013-01-27 14:35:00,
2013-01-27 09:40:00,43.1,34.7,30.66,East,82,0.0,0.0,72,0.00,,FEW250,0.00,VWS V14.01,2013-01-27 14:40:00,
2013-01-27 09:45:00,43.8,34.7,30.66,North,11,0.0,6.0,70,0.00,,FEW250,0.00,VWS V14.01,2013-01-27 14:45:00,
2013-01-27 09:50:00,44.3,34.8,30.66,WNW,303,2.0,7.0,69,0.00,,FEW250,0.00,VWS V14.01,2013-01-27 14:50:00,
2013-01-27 09:56:00,44.8,35.3,30.66,ENE,60,0.0,1.0,69,0.00,,FEW250,0.00,VWS V14.01,2013-01-27 14:56:00,
2013-01-27 10:01:00,44.9,35.0,30.66,NNE,33,0.0,0.0,68,0.00,,FEW250,0.00,VWS V14.01,2013-01-27 15:01:00,
2013-01-27 10:06:00,45.4,35.1,30.67,NNE,16,0.0,0.0,67,0.00,,FEW250,0.00,VWS V14.01,2013-01-27 15:06:00,
2013-01-27 10:11:00,46.0,36.0,30.67,NW,321,0.0,0.0,68,0.00,,FEW250,0.00,VWS V14.01,2013-01-27 15:11:00,
2013-01-27 10:16:00,46.5,35.4,30.67,WNW,293,3.0,3.0,65,0.00,,FEW250,0.00,VWS V14.01,2013-01-27 15:16:00,
2013-01-27 10:21:00,46.7,36.0,30.67,NW,321,0.0,4.0,66,0.00,,FEW250,0.00,VWS V14.01,2013-01-27 15:21:00,
2013-01-27 10:26:00,46.8,36.0,30.67,East,99,0.0,1.0,66,0.00,,FEW250,0.00,VWS V14.01,2013-01-27 15:26:00,
2013-01-27 10:31:00,47.4,36.6,30.67,NNE,26,0.0,2.0,66,0.00,,FEW250,0.00,VWS V14.01,2013-01-27 15:31:00,
2013-01-27 10:36:00,48.0,36.4,30.67,WNW,292,0.0,0.0,64,0.00,,FEW250,0.00,VWS V14.01,2013-01-27 15:36:00,
2013-01-27 10:41:00,48.3,36.7,30.67,North,0,0.0,1.0,64,0.00,,FEW250,0.00,VWS V14.01,2013-01-27 15:41:00,
2013-01-27 10:46:00,48.8,37.2,30.67,NW,304,1.0,1.0,64,0.00,,FEW250,0.00,VWS V14.01,2013-01-27 15:46:00,
2013-01-27 10:51:00,49.1,37.1,30.67,WNW,293,0.0,1.0,63,0.00,,FEW250,0.00,VWS V14.01,2013-01-27 15:51:00,
2013-01-27 10:56:00,49.4,36.9,30.67,East,89,0.0,4.0,62,0.00,,FEW250,0.00,VWS V14.01,2013-01-27 15:56:00,
2013-01-27 11:01:00,49.6,36.7,30.67,North,351,0.0,1.0,61,0.00,,FEW250,0.00,VWS V14.01,2013-01-27 16:01:00,
2013-01-27 11:06:00,49.9,37.0,30.67,NW,324,0.0,0.0,61,0.00,,FEW250,0.00,VWS V14.01,2013-01-27 16:06:00,
2013-01-27 11:11:00,50.2,37.3,30.67,West,273,0.0,0.0,61,0.00,,FEW250,0.00,VWS V14.01,2013-01-27 16:11:00,
2013-01-27 11:16:00,50.7,37.3,30.67,North,358,0.0,0.0,60,0.00,,FEW250,0.00,VWS V14.01,2013-01-27 16:16:00,
2013-01-27 11:21:00,51.0,37.2,30.67,NNW,343,0.0,0.0,59,0.00,,FEW250,0.00,VWS V14.01,2013-01-27 16:21:00,
2013-01-27 11:26:00,51.4,36.7,30.67,NW,316,0.0,0.0,57,0.00,,FEW250,0.00,VWS V14.01,2013-01-27 16:26:00,
2013-01-27 11:31:00,51.7,37.8,30.67,NNW,342,0.0,0.0,59,0.00,,FEW250,0.00,VWS V14.01,2013-01-27 16:31:00,
2013-01-27 11:36:00,52.3,38.0,30.67,WNW,290,1.0,1.0,58,0.00,,FEW250,0.00,VWS V14.01,2013-01-27 16:36:00,
2013-01-27 11:41:00,52.6,38.3,30.67,North,10,2.0,2.0,58,0.00,,FEW250,0.00,VWS V14.01,2013-01-27 16:41:00,
2013-01-27 11:46:00,52.8,38.5,30.67,WNW,290,0.0,1.0,58,0.00,,FEW250,0.00,VWS V14.01,2013-01-27 16:46:00,
2013-01-27 11:51:00,52.8,37.5,30.67,NNW,328,0.0,5.0,56,0.00,,FEW250,0.00,VWS V14.01,2013-01-27 16:51:00,
2013-01-27 11:56:00,52.3,38.0,30.67,NE,44,0.0,4.0,58,0.00,,FEW250,0.00,VWS V14.01,2013-01-27 16:56:00,
2013-01-27 12:01:00,52.8,37.5,30.66,NNW,336,0.0,0.0,56,0.00,,FEW250,0.00,VWS V14.01,2013-01-27 17:01:00,
2013-01-27 12:07:00,53.2,37.9,30.66,ENE,78,0.0,0.0,56,0.00,,FEW250,0.00,VWS V14.01,2013-01-27 17:07:00,
2013-01-27 12:12:00,53.8,37.6,30.66,West,278,1.0,5.0,54,0.00,,FEW250,0.00,VWS V14.01,2013-01-27 17:12:00,
2013-01-27 12:17:00,54.1,37.8,30.66,WNW,285,2.0,2.0,54,0.00,,FEW250,0.00,VWS V14.01,2013-01-27 17:17:00,
2013-01-27 12:22:00,54.2,38.4,30.66,North,358,0.0,0.0,55,0.00,,FEW250,0.00,VWS V14.01,2013-01-27 17:22:00,
2013-01-27 12:27:00,54.8,38.5,30.66,ENE,63,0.0,1.0,54,0.00,,FEW250,0.00,VWS V14.01,2013-01-27 17:27:00,
2013-01-27 12:32:00,55.3,38.5,30.64,ENE,77,0.0,4.0,53,0.00,,FEW250,0.00,VWS V14.01,2013-01-27 17:32:00,
2013-01-27 12:37:00,55.4,36.1,30.64,NNE,18,0.0,6.0,48,0.00,,FEW250,0.00,VWS V14.01,2013-01-27 17:37:00,
2013-01-27 12:42:00,55.6,37.3,30.64,West,276,0.0,1.0,50,0.00,,FEW250,0.00,VWS V14.01,2013-01-27 17:42:00,
2013-01-27 12:47:00,55.1,37.3,30.64,NW,325,0.0,0.0,51,0.00,,FEW250,0.00,VWS V14.01,2013-01-27 17:47:00,
2013-01-27 12:52:00,54.7,35.9,30.64,North,356,1.0,3.0,49,0.00,,FEW250,0.00,VWS V14.01,2013-01-27 17:52:00,
2013-01-27 12:57:00,55.1,36.8,30.64,NNE,22,0.0,1.0,50,0.00,,FEW250,0.00,VWS V14.01,2013-01-27 17:57:00,
2013-01-27 13:03:00,55.7,36.8,30.64,NNW,336,0.0,3.0,49,0.00,,SCT250,0.00,VWS V14.01,2013-01-27 18:03:00,
2013-01-27 13:08:00,56.2,37.8,30.64,ENE,60,0.0,1.0,50,0.00,,SCT250,0.00,VWS V14.01,2013-01-27 18:08:00,
2013-01-27 13:13:00,56.6,36.1,30.64,East,84,0.0,3.0,46,0.00,,SCT250,0.00,VWS V14.01,2013-01-27 18:13:00,
2013-01-27 13:18:00,55.9,36.5,30.63,NW,325,0.0,0.0,48,0.00,,SCT250,0.00,VWS V14.01,2013-01-27 18:18:00,
2013-01-27 13:23:00,56.0,37.1,30.63,East,83,0.0,1.0,49,0.00,,SCT250,0.00,VWS V14.01,2013-01-27 18:23:00,
2013-01-27 13:28:00,57.0,36.4,30.63,NE,49,0.0,2.0,46,0.00,,SCT250,0.00,VWS V14.01,2013-01-27 18:28:00,
2013-01-27 13:33:00,57.5,36.9,30.63,East,94,0.0,1.0,46,0.00,,SCT250,0.00,VWS V14.01,2013-01-27 18:33:00,
2013-01-27 13:38:00,57.5,36.3,30.63,NNW,328,4.0,5.0,45,0.00,,SCT250,0.00,VWS V14.01,2013-01-27 18:38:00,
2013-01-27 13:43:00,56.6,36.1,30.63,WNW,287,0.0,0.0,46,0.00,,SCT250,0.00,VWS V14.01,2013-01-27 18:43:00,
2013-01-27 13:48:00,56.3,36.9,30.63,WNW,300,0.0,0.0,48,0.00,,SCT250,0.00,VWS V14.01,2013-01-27 18:48:00,
2013-01-27 13:53:00,57.0,35.9,30.63,NW,305,0.0,0.0,45,0.00,,SCT250,0.00,VWS V14.01,2013-01-27 18:53:00,
2013-01-27 13:59:00,56.6,36.6,30.63,WSW,238,0.0,0.0,47,0.00,,SCT250,0.00,VWS V14.01,2013-01-27 18:59:00,
2013-01-27 14:04:00,56.5,36.0,30.63,WNW,297,0.0,4.0,46,0.00,,SCT250,0.00,VWS V14.01,2013-01-27 19:04:00,
2013-01-27 14:09:00,56.5,36.0,30.63,WNW,303,0.0,1.0,46,0.00,,SCT250,0.00,VWS V14.01,2013-01-27 19:09:00,
2013-01-27 14:14:00,56.5,36.5,30.63,NW,323,1.0,1.0,47,0.00,,SCT250,0.00,VWS V14.01,2013-01-27 19:14:00,
2013-01-27 14:19:00,56.3,36.3,30.63,North,10,0.0,0.0,47,0.00,,SCT250,0.00,VWS V14.01,2013-01-27 19:19:00,
2013-01-27 14:24:00,56.5,36.0,30.63,NW,319,2.0,2.0,46,0.00,,SCT250,0.00,VWS V14.01,2013-01-27 19:24:00,
2013-01-27 14:29:00,56.5,36.0,30.63,NNE,15,0.0,0.0,46,0.00,,SCT250,0.00,VWS V14.01,2013-01-27 19:29:00,
2013-01-27 14:34:00,56.9,36.3,30.63,East,91,0.0,0.0,46,0.00,,SCT250,0.00,VWS V14.01,2013-01-27 19:34:00,
2013-01-27 14:39:00,57.3,36.7,30.63,NW,326,0.0,1.0,46,0.00,,SCT250,0.00,VWS V14.01,2013-01-27 19:39:00,
2013-01-27 14:44:00,57.2,36.6,30.63,West,271,0.0,1.0,46,0.00,,SCT250,0.00,VWS V14.01,2013-01-27 19:44:00,
2013-01-27 14:49:00,57.0,37.0,30.63,East,88,0.0,1.0,47,0.00,,SCT250,0.00,VWS V14.01,2013-01-27 19:49:00,
2013-01-27 14:54:00,57.2,36.6,30.63,NE,53,1.0,2.0,46,0.00,,SCT250,0.00,VWS V14.01,2013-01-27 19:54:00,
2013-01-27 14:59:00,57.0,35.9,30.63,NW,319,0.0,1.0,45,0.00,,SCT250,0.00,VWS V14.01,2013-01-27 19:59:00,
2013-01-27 15:04:00,56.3,36.9,30.64,NNE,33,1.0,4.0,48,0.00,,SCT250,0.00,VWS V14.01,2013-01-27 20:04:00,
2013-01-27 15:10:00,56.0,35.5,30.64,North,0,0.0,2.0,46,0.00,,SCT250,0.00,VWS V14.01,2013-01-27 20:10:00,
2013-01-27 15:15:00,55.4,35.5,30.64,East,81,4.0,4.0,47,0.00,,SCT250,0.00,VWS V14.01,2013-01-27 20:15:00,
2013-01-27 15:20:00,55.3,34.9,30.63,NE,48,0.0,0.0,46,0.00,,SCT250,0.00,VWS V14.01,2013-01-27 20:20:00,
2013-01-27 15:25:00,55.3,34.9,30.63,WNW,295,0.0,2.0,46,0.00,,SCT250,0.00,VWS V14.01,2013-01-27 20:25:00,
2013-01-27 15:30:00,54.8,35.5,30.63,North,1,0.0,1.0,48,0.00,,SCT250,0.00,VWS V14.01,2013-01-27 20:30:00,
2013-01-27 15:35:00,54.5,34.7,30.63,WNW,296,0.0,3.0,47,0.00,,SCT250,0.00,VWS V14.01,2013-01-27 20:35:00,
2013-01-27 15:40:00,54.4,35.1,30.63,NE,47,1.0,1.0,48,0.00,,SCT250,0.00,VWS V14.01,2013-01-27 20:40:00,
2013-01-27 15:45:00,54.2,34.4,30.63,ENE,64,0.0,2.0,47,0.00,,SCT250,0.00,VWS V14.01,2013-01-27 20:45:00,
2013-01-27 15:50:00,53.9,34.7,30.63,East,82,0.0,0.0,48,0.00,,SCT250,0.00,VWS V14.01,2013-01-27 20:50:00,
2013-01-27 15:55:00,53.6,34.9,30.63,NE,46,0.0,1.0,49,0.00,,SCT250,0.00,VWS V14.01,2013-01-27 20:55:00,
2013-01-27 16:01:00,53.3,34.7,30.63,ENE,57,0.0,2.0,49,0.00,,FEW250,0.00,VWS V14.01,2013-01-27 21:01:00,
2013-01-27 16:06:00,53.5,34.3,30.64,ENE,65,0.0,3.0,48,0.00,,FEW250,0.00,VWS V14.01,2013-01-27 21:06:00,
2013-01-27 16:11:00,53.3,34.7,30.64,NNW,334,0.0,1.0,49,0.00,,FEW250,0.00,VWS V14.01,2013-01-27 21:11:00,
2013-01-27 16:16:00,52.9,35.3,30.64,ENE,68,4.0,4.0,51,0.00,,FEW250,0.00,VWS V14.01,2013-01-27 21:16:00,
2013-01-27 16:21:00,52.5,35.4,30.64,East,86,0.0,0.0,52,0.00,,FEW250,0.00,VWS V14.01,2013-01-27 21:21:00,
2013-01-27 16:26:00,52.2,35.1,30.64,NE,54,0.0,2.0,52,0.00,,FEW250,0.00,VWS V14.01,2013-01-27 21:26:00,
2013-01-27 16:31:00,51.7,34.7,30.64,NNE,17,0.0,6.0,52,0.00,,FEW250,0.00,VWS V14.01,2013-01-27 21:31:00,
2013-01-27 16:36:00,51.3,34.8,30.64,NE,46,0.0,1.0,53,0.00,,FEW250,0.00,VWS V14.01,2013-01-27 21:36:00,
2013-01-27 16:41:00,51.0,34.5,30.64,ENE,62,0.0,2.0,53,0.00,,FEW250,0.00,VWS V14.01,2013-01-27 21:41:00,
2013-01-27 16:46:00,50.7,34.7,30.64,NE,44,0.0,0.0,54,0.00,,FEW250,0.00,VWS V14.01,2013-01-27 21:46:00,
2013-01-27 16:51:00,50.4,34.4,30.64,ENE,58,0.0,0.0,54,0.00,,FEW250,0.00,VWS V14.01,2013-01-27 21:51:00,
2013-01-27 16:56:00,50.2,34.7,30.64,NE,46,0.0,1.0,55,0.00,,FEW250,0.00,VWS V14.01,2013-01-27 21:56:00,
2013-01-27 17:01:00,49.9,34.8,30.64,North,4,0.0,0.0,56,0.00,,CLR,0.00,VWS V14.01,2013-01-27 22:01:00,
2013-01-27 17:07:00,49.6,35.5,30.64,NNW,343,0.0,0.0,58,0.00,,CLR,0.00,VWS V14.01,2013-01-27 22:07:00,
2013-01-27 17:12:00,49.2,35.1,30.64,NE,48,0.0,4.0,58,0.00,,CLR,0.00,VWS V14.01,2013-01-27 22:12:00,
2013-01-27 17:17:00,48.8,34.7,30.65,NE,54,0.0,0.0,58,0.00,,CLR,0.00,VWS V14.01,2013-01-27 22:17:00,
2013-01-27 17:22:00,48.3,34.2,30.65,NW,316,0.0,0.0,58,0.00,,CLR,0.00,VWS V14.01,2013-01-27 22:22:00,
2013-01-27 17:27:00,47.9,34.7,30.65,NE,35,1.0,2.0,60,0.00,,CLR,0.00,VWS V14.01,2013-01-27 22:27:00,
2013-01-27 17:32:00,47.4,34.6,30.66,WNW,290,0.0,1.0,61,0.00,,CLR,0.00,VWS V14.01,2013-01-27 22:32:00,
2013-01-27 17:37:00,47.0,34.3,30.66,NNW,333,0.0,1.0,61,0.00,,CLR,0.00,VWS V14.01,2013-01-27 22:37:00,
2013-01-27 17:42:00,46.5,33.8,30.66,NW,316,0.0,0.0,61,0.00,,CLR,0.00,VWS V14.01,2013-01-27 22:42:00,
2013-01-27 17:47:00,46.1,33.8,30.66,NE,40,0.0,0.0,62,0.00,,CLR,0.00,VWS V14.01,2013-01-27 22:47:00,
2013-01-27 17:52:00,45.7,33.8,30.66,NE,40,0.0,0.0,63,0.00,,CLR,0.00,VWS V14.01,2013-01-27 22:52:00,
2013-01-27 17:57:00,45.4,34.0,30.66,North,358,0.0,0.0,64,0.00,,CLR,0.00,VWS V14.01,2013-01-27 22:57:00,
2013-01-27 18:02:00,44.9,33.9,30.66,North,358,0.0,0.0,65,0.00,,FEW250,0.00,VWS V14.01,2013-01-27 23:02:00,
2013-01-27 18:07:00,44.6,34.0,30.66,North,358,0.0,0.0,66,0.00,,FEW250,0.00,VWS V14.01,2013-01-27 23:07:00,
2013-01-27 18:13:00,44.3,34.0,30.66,North,358,0.0,0.0,67,0.00,,FEW250,0.00,VWS V14.01,2013-01-27 23:13:00,
2013-01-27 18:18:00,44.2,34.3,30.66,North,358,0.0,0.0,68,0.00,,FEW250,0.00,VWS V14.01,2013-01-27 23:18:00,
2013-01-27 18:23:00,43.9,34.0,30.66,North,358,0.0,0.0,68,0.00,,FEW250,0.00,VWS V14.01,2013-01-27 23:23:00,
2013-01-27 18:28:00,43.6,34.1,30.66,North,358,0.0,0.0,69,0.00,,FEW250,0.00,VWS V14.01,2013-01-27 23:28:00,
2013-01-27 18:33:00,43.3,34.2,30.67,North,358,0.0,0.0,70,0.00,,FEW250,0.00,VWS V14.01,2013-01-27 23:33:00,
2013-01-27 18:38:00,43.2,34.5,30.67,North,358,0.0,0.0,71,0.00,,FEW250,0.00,VWS V14.01,2013-01-27 23:38:00,
2013-01-27 18:43:00,43.1,34.7,30.67,North,358,0.0,0.0,72,0.00,,FEW250,0.00,VWS V14.01,2013-01-27 23:43:00,
2013-01-27 18:48:00,42.9,34.5,30.66,North,358,0.0,0.0,72,0.00,,FEW250,0.00,VWS V14.01,2013-01-27 23:48:00,
2013-01-27 18:53:00,42.8,34.8,30.66,East,89,0.0,0.0,73,0.00,,FEW250,0.00,VWS V14.01,2013-01-27 23:53:00,
2013-01-27 18:58:00,42.8,35.1,30.66,NNW,347,0.0,1.0,74,0.00,,FEW250,0.00,VWS V14.01,2013-01-27 23:58:00,
2013-01-27 19:03:00,42.6,34.9,30.66,North,352,0.0,0.0,74,0.00,,BKN250,0.00,VWS V14.01,2013-01-28 00:03:00,
2013-01-27 19:08:00,42.6,35.2,30.66,ESE,112,0.0,1.0,75,0.00,,BKN250,0.00,VWS V14.01,2013-01-28 00:08:00,
2013-01-27 19:13:00,42.5,35.2,30.66,North,358,0.0,0.0,75,0.00,,BKN250,0.00,VWS V14.01,2013-01-28 00:13:00,
2013-01-27 19:18:00,42.3,35.0,30.67,North,0,0.0,0.0,75,0.00,,BKN250,0.00,VWS V14.01,2013-01-28 00:18:00,
2013-01-27 19:23:00,42.3,35.0,30.67,North,358,0.0,0.0,75,0.00,,BKN250,0.00,VWS V14.01,2013-01-28 00:23:00,
2013-01-27 19:28:00,42.3,35.3,30.67,North,358,0.0,0.0,76,0.00,,BKN250,0.00,VWS V14.01,2013-01-28 00:28:00,
2013-01-27 19:33:00,42.3,35.6,30.68,North,358,0.0,0.0,77,0.00,,BKN250,0.00,VWS V14.01,2013-01-28 00:33:00,
2013-01-27 19:39:00,42.2,35.5,30.68,North,358,0.0,0.0,77,0.00,,BKN250,0.00,VWS V14.01,2013-01-28 00:39:00,
2013-01-27 19:44:00,41.9,35.2,30.68,North,358,0.0,0.0,77,0.00,,BKN250,0.00,VWS V14.01,2013-01-28 00:44:00,
2013-01-27 19:49:00,41.8,35.5,30.67,North,358,0.0,0.0,78,0.00,,BKN250,0.00,VWS V14.01,2013-01-28 00:49:00,
2013-01-27 19:54:00,41.5,35.2,30.67,North,358,0.0,0.0,78,0.00,,BKN250,0.00,VWS V14.01,2013-01-28 00:54:00,
2013-01-27 19:59:00,41.3,35.0,30.67,North,358,0.0,0.0,78,0.00,,BKN250,0.00,VWS V14.01,2013-01-28 00:59:00,
2013-01-27 20:04:00,41.2,35.2,30.68,North,358,0.0,0.0,79,0.00,,SCT250,0.00,VWS V14.01,2013-01-28 01:04:00,
2013-01-27 20:09:00,41.1,35.4,30.68,North,358,0.0,0.0,80,0.00,,SCT250,0.00,VWS V14.01,2013-01-28 01:09:00,
2013-01-27 20:14:00,40.9,35.5,30.68,North,358,0.0,0.0,81,0.00,,SCT250,0.00,VWS V14.01,2013-01-28 01:14:00,
2013-01-27 20:19:00,40.8,35.4,30.67,North,358,0.0,0.0,81,0.00,,SCT250,0.00,VWS V14.01,2013-01-28 01:19:00,
2013-01-27 20:24:00,40.6,34.9,30.67,North,358,0.0,0.0,80,0.00,,SCT250,0.00,VWS V14.01,2013-01-28 01:24:00,
2013-01-27 20:29:00,40.5,34.8,30.67,North,7,0.0,0.0,80,0.00,,SCT250,0.00,VWS V14.01,2013-01-28 01:29:00,
2013-01-27 20:35:00,40.6,34.9,30.67,North,7,0.0,0.0,80,0.00,,SCT250,0.00,VWS V14.01,2013-01-28 01:35:00,
2013-01-27 20:40:00,40.6,34.6,30.67,North,358,0.0,0.0,79,0.00,,SCT250,0.00,VWS V14.01,2013-01-28 01:40:00,
2013-01-27 20:45:00,40.8,34.5,30.67,North,358,0.0,0.0,78,0.00,,SCT250,0.00,VWS V14.01,2013-01-28 01:45:00,
2013-01-27 20:50:00,40.8,34.5,30.67,North,358,0.0,0.0,78,0.00,,SCT250,0.00,VWS V14.01,2013-01-28 01:50:00,
2013-01-27 20:55:00,40.8,34.5,30.67,North,0,0.0,0.0,78,0.00,,SCT250,0.00,VWS V14.01,2013-01-28 01:55:00,
2013-01-27 21:00:00,41.1,34.8,30.67,North,0,0.0,0.0,78,0.00,,SCT250,0.00,VWS V14.01,2013-01-28 02:00:00,
2013-01-27 21:05:00,41.2,34.9,30.67,WNW,299,0.0,1.0,78,0.00,,BKN030,0.00,VWS V14.01,2013-01-28 02:05:00,
2013-01-27 21:10:00,41.5,34.8,30.67,NW,304,0.0,0.0,77,0.00,,BKN030,0.00,VWS V14.01,2013-01-28 02:10:00,
2013-01-27 21:15:00,41.8,34.8,30.67,NW,304,0.0,0.0,76,0.00,,BKN030,0.00,VWS V14.01,2013-01-28 02:15:00,
2013-01-27 21:20:00,42.1,34.8,30.66,NW,304,0.0,0.0,75,0.00,,BKN030,0.00,VWS V14.01,2013-01-28 02:20:00,
2013-01-27 21:25:00,42.2,34.5,30.66,WNW,303,0.0,0.0,74,0.00,,BKN030,0.00,VWS V14.01,2013-01-28 02:25:00,
2013-01-27 21:30:00,42.2,34.2,30.66,NNW,335,0.0,2.0,73,0.00,,BKN030,0.00,VWS V14.01,2013-01-28 02:30:00,
2013-01-27 21:35:00,42.2,33.8,30.66,NNW,333,0.0,0.0,72,0.00,,SCT250,0.00,VWS V14.01,2013-01-28 02:35:00,
2013-01-27 21:40:00,42.2,33.8,30.66,NNW,333,0.0,0.0,72,0.00,,SCT250,0.00,VWS V14.01,2013-01-28 02:40:00,
2013-01-27 21:45:00,42.2,33.8,30.66,NNW,333,0.0,0.0,72,0.00,,SCT250,0.00,VWS V14.01,2013-01-28 02:45:00,
2013-01-27 21:50:00,42.1,33.7,30.66,NNW,333,0.0,0.0,72,0.00,,SCT250,0.00,VWS V14.01,2013-01-28 02:50:00,
2013-01-27 21:55:00,42.1,33.7,30.66,NNW,333,0.0,0.0,72,0.00,,SCT250,0.00,VWS V14.01,2013-01-28 02:55:00,
2013-01-27 22:01:00,41.9,33.9,30.66,NNW,333,0.0,0.0,73,0.00,,SCT250,0.00,VWS V14.01,2013-01-28 03:01:00,
2013-01-27 22:06:00,41.8,33.8,30.66,NNW,333,0.0,0.0,73,0.00,,SCT250,0.00,VWS V14.01,2013-01-28 03:06:00,
2013-01-27 22:11:00,41.6,33.6,30.66,NNW,333,0.0,0.0,73,0.00,,SCT250,0.00,VWS V14.01,2013-01-28 03:11:00,
2013-01-27 22:16:00,41.6,33.6,30.66,NNW,333,0.0,0.0,73,0.00,,SCT250,0.00,VWS V14.01,2013-01-28 03:16:00,
2013-01-27 22:21:00,41.6,33.6,30.65,NNW,333,0.0,0.0,73,0.00,,SCT250,0.00,VWS V14.01,2013-01-28 03:21:00,
2013-01-27 22:26:00,41.6,33.6,30.65,NNW,333,0.0,0.0,73,0.00,,SCT250,0.00,VWS V14.01,2013-01-28 03:26:00,
2013-01-27 22:31:00,41.6,33.6,30.65,NNW,333,0.0,0.0,73,0.00,,SCT250,0.00,VWS V14.01,2013-01-28 03:31:00,
2013-01-27 22:36:00,41.8,33.5,30.65,NNW,333,0.0,0.0,72,0.00,,SCT250,0.00,VWS V14.01,2013-01-28 03:36:00,
2013-01-27 22:41:00,41.9,33.5,30.65,NNW,333,0.0,0.0,72,0.00,,SCT250,0.00,VWS V14.01,2013-01-28 03:41:00,
2013-01-27 22:46:00,41.9,33.5,30.64,NNW,333,0.0,0.0,72,0.00,,SCT250,0.00,VWS V14.01,2013-01-28 03:46:00,
2013-01-27 22:51:00,41.8,33.5,30.64,NNW,333,0.0,0.0,72,0.00,,SCT250,0.00,VWS V14.01,2013-01-28 03:51:00,
2013-01-27 22:56:00,41.8,33.8,30.64,NNW,333,0.0,0.0,73,0.00,,SCT250,0.00,VWS V14.01,2013-01-28 03:56:00,
2013-01-27 23:02:00,41.8,33.8,30.65,NNW,333,0.0,0.0,73,0.00,,SCT250,0.00,VWS V14.01,2013-01-28 04:02:00,
2013-01-27 23:07:00,41.8,33.8,30.65,NNW,333,0.0,0.0,73,0.00,,SCT250,0.00,VWS V14.01,2013-01-28 04:07:00,
2013-01-27 23:12:00,41.6,33.6,30.65,NNW,333,0.0,0.0,73,0.00,,SCT250,0.00,VWS V14.01,2013-01-28 04:12:00,
2013-01-27 23:17:00,41.6,33.9,30.64,NNW,333,0.0,0.0,74,0.00,,SCT250,0.00,VWS V14.01,2013-01-28 04:17:00,
2013-01-27 23:22:00,41.5,33.8,30.64,NNW,333,0.0,0.0,74,0.00,,SCT250,0.00,VWS V14.01,2013-01-28 04:22:00,
2013-01-27 23:27:00,41.5,33.8,30.64,NNW,333,0.0,0.0,74,0.00,,SCT250,0.00,VWS V14.01,2013-01-28 04:27:00,
2013-01-27 23:32:00,41.5,33.8,30.64,NNW,333,0.0,0.0,74,0.00,,BKN250,0.00,VWS V14.01,2013-01-28 04:32:00,
2013-01-27 23:37:00,41.3,33.7,30.64,NNW,333,0.0,0.0,74,0.00,,BKN250,0.00,VWS V14.01,2013-01-28 04:37:00,
2013-01-27 23:42:00,41.3,34.0,30.64,NNW,333,0.0,0.0,75,0.00,,BKN250,0.00,VWS V14.01,2013-01-28 04:42:00,
2013-01-27 23:47:00,41.2,33.9,30.64,NNW,333,0.0,0.0,75,0.00,,BKN250,0.00,VWS V14.01,2013-01-28 04:47:00,
2013-01-27 23:52:00,41.3,34.0,30.64,NNW,333,0.0,0.0,75,0.00,,BKN250,0.00,VWS V14.01,2013-01-28 04:52:00,
2013-01-27 23:57:00,41.6,34.6,30.64,NNW,333,0.0,0.0,76,0.00,,BKN250,0.00,VWS V14.01,2013-01-28 04:57:00,